| time (UTC) | temp C | wind direction | speed KPH | gust KPH | rain 1hr cm | rain 24hr cm | rain mn cm | humidity % | barometer mb |
| 20260509173630 | 15 | 164 | 4.8 | 14.5 | 0.00 | 0.00 | 0.00 | 67 | 1008.1 |
| 20260509172728 | 15 | 106 | 4.8 | 11.3 | 0.00 | 0.00 | 0.00 | 67 | 1008.4 |
| 20260509171730 | 15 | 114 | 4.8 | 11.3 | 0.00 | 0.00 | 0.00 | 67 | 1008.5 |
| 20260509170828 | 15 | 174 | 11.3 | 16.1 | 0.00 | 0.00 | 0.00 | 68 | 1008.4 |
| 20260509165829 | 15 | 163 | 11.3 | 14.5 | 0.00 | 0.00 | 0.00 | 66 | 1008.8 |
| 20260509163829 | 15 | 87 | 6.4 | 11.3 | 0.00 | 0.00 | 0.00 | 66 | 1008.8 |
| 20260509162927 | 15 | 167 | 6.4 | 12.9 | 0.00 | 0.00 | 0.00 | 67 | 1008.8 |
| 20260509161930 | 15 | 153 | 3.2 | 8.0 | 0.00 | 0.00 | 0.00 | 67 | 1009.0 |
| 20260509160929 | 15 | 160 | 4.8 | 6.4 | 0.00 | 0.00 | 0.00 | 67 | 1009.2 |
| 20260509155929 | 14 | 152 | 8.0 | 16.1 | 0.00 | 0.00 | 0.00 | 68 | 1008.9 |
| 20260509154930 | 13 | 150 | 6.4 | 14.5 | 0.00 | 0.00 | 0.00 | 68 | 1009.4 |
| 20260509153930 | 13 | 160 | 12.9 | 17.7 | 0.00 | 0.00 | 0.00 | 67 | 1009.5 |
| 20260509152930 | 14 | 158 | 4.8 | 12.9 | 0.00 | 0.00 | 0.00 | 68 | 1009.5 |
| 20260509152027 | 14 | 204 | 4.8 | 6.4 | 0.00 | 0.00 | 0.00 | 69 | 1009.5 |
| 20260509150030 | 13 | 123 | 9.7 | 17.7 | 0.00 | 0.00 | 0.00 | 68 | 1009.8 |
| 20260509145030 | 13 | 162 | 8.0 | 14.5 | 0.00 | 0.00 | 0.00 | 70 | 1010.1 |
| 20260509143128 | 13 | 130 | 9.7 | 16.1 | 0.00 | 0.00 | 0.00 | 71 | 1010.1 |
| 20260509142131 | 12 | 125 | 9.7 | 12.9 | 0.00 | 0.00 | 0.00 | 70 | 1009.8 |
| 20260509140129 | 12 | 123 | 4.8 | 12.9 | 0.00 | 0.00 | 0.00 | 72 | 1010.4 |
| 20260509134327 | 11 | 150 | 8.0 | 14.5 | 0.00 | 0.00 | 0.00 | 72 | 1010.5 |
| 20260509132329 | 11 | 125 | 8.0 | 14.5 | 0.00 | 0.00 | 0.00 | 71 | 1010.5 |
| 20260509131329 | 10 | 151 | 3.2 | 8.0 | 0.00 | 0.00 | 0.00 | 71 | 1010.5 |
| 20260509130331 | 10 | 148 | 6.4 | 12.9 | 0.00 | 0.00 | 0.00 | 71 | 1010.5 |
| 20260509125329 | 9 | 135 | 8.0 | 12.9 | 0.00 | 0.00 | 0.00 | 71 | 1010.6 |
| 20260509124329 | 8 | 138 | 4.8 | 8.0 | 0.00 | 0.00 | 0.00 | 70 | 1010.5 |
| 20260509123330 | 8 | 152 | 6.4 | 12.9 | 0.00 | 0.00 | 0.00 | 71 | 1010.5 |
| 20260509122428 | 8 | 119 | 8.0 | 12.9 | 0.00 | 0.00 | 0.00 | 71 | 1010.5 |
| 20260509122329 | 8 | 103 | 6.4 | 12.9 | 0.00 | 0.00 | 0.00 | 72 | 1010.4 |
| 20260509120328 | 6 | 160 | 4.8 | 6.4 | 0.00 | 0.00 | 0.00 | 72 | 1010.5 |
| 20260509115328 | 7 | 133 | 4.8 | 9.7 | 0.00 | 0.00 | 0.00 | 73 | 1010.5 |
| 20260509114329 | 7 | 129 | 4.8 | 6.4 | 0.00 | 0.00 | 0.00 | 74 | 1010.5 |
| 20260509112429 | 6 | 144 | 6.4 | 9.7 | 0.00 | 0.00 | 0.00 | 75 | 1010.5 |
| 20260509111429 | 5 | 151 | 6.4 | 9.7 | 0.00 | 0.00 | 0.00 | 75 | 1010.5 |
| 20260509110527 | 6 | 155 | 4.8 | 9.7 | 0.00 | 0.00 | 0.00 | 77 | 1010.2 |
| 20260509105528 | 5 | 165 | 4.8 | 8.0 | 0.00 | 0.00 | 0.00 | 77 | 1010.2 |
| 20260509104529 | 5 | 136 | 4.8 | 8.0 | 0.00 | 0.00 | 0.00 | 79 | 1010.2 |
| 20260509103528 | 5 | 157 | 4.8 | 9.7 | 0.00 | 0.00 | 0.00 | 81 | 1010.2 |
| 20260509101529 | 5 | 143 | 4.8 | 8.0 | 0.00 | 0.00 | 0.00 | 82 | 1010.2 |
| 20260509094627 | 5 | 164 | 3.2 | 6.4 | 0.00 | 0.00 | 0.00 | 83 | 1010.1 |
| 20260509094528 | 5 | 180 | 4.8 | 6.4 | 0.00 | 0.00 | 0.00 | 83 | 1010.0 |
| 20260509093528 | 5 | 178 | 4.8 | 9.7 | 0.00 | 0.00 | 0.00 | 84 | 1010.2 |
| 20260509092527 | 3 | 157 | 6.4 | 14.5 | 0.00 | 0.00 | 0.00 | 84 | 1010.2 |
| 20260509091528 | 3 | 153 | 4.8 | 8.0 | 0.00 | 0.00 | 0.00 | 85 | 1010.2 |
| 20260509090531 | 3 | 141 | 3.2 | 4.8 | 0.00 | 0.00 | 0.00 | 85 | 1010.2 |
| 20260509085629 | 4 | 151 | 4.8 | 8.0 | 0.00 | 0.00 | 0.00 | 86 | 1010.5 |
| 20260509083628 | 4 | 160 | 4.8 | 8.0 | 0.00 | 0.00 | 0.00 | 85 | 1010.5 |
| 20260509082728 | 4 | 155 | 4.8 | 6.4 | 0.00 | 0.00 | 0.00 | 85 | 1010.5 |
| 20260509081728 | 5 | 159 | 4.8 | 8.0 | 0.00 | 0.00 | 0.00 | 85 | 1010.6 |
| 20260509080828 | 5 | 155 | 8.0 | 12.9 | 0.00 | 0.00 | 0.00 | 84 | 1010.9 |
| 20260509075830 | 5 | 142 | 4.8 | 9.7 | 0.00 | 0.00 | 0.00 | 83 | 1010.9 |
| 20260509074928 | 5 | 158 | 6.4 | 12.9 | 0.00 | 0.00 | 0.00 | 82 | 1010.9 |
| 20260509072927 | 5 | 147 | 6.4 | 11.3 | 0.00 | 0.00 | 0.00 | 77 | 1010.9 |
| 20260509071930 | 5 | 149 | 3.2 | 9.7 | 0.00 | 0.00 | 0.00 | 74 | 1010.9 |
| 20260509070929 | 5 | 155 | 8.0 | 9.7 | 0.00 | 0.00 | 0.00 | 72 | 1010.9 |
| 20260509065929 | 5 | 168 | 3.2 | 6.4 | 0.00 | 0.00 | 0.00 | 71 | 1011.2 |
| 20260509064929 | 5 | 128 | 4.8 | 8.0 | 0.00 | 0.00 | 0.00 | 73 | 1011.2 |
| 20260509063929 | 5 | 127 | 3.2 | 6.4 | 0.00 | 0.00 | 0.00 | 73 | 1011.5 |
| 20260509063027 | 5 | 164 | 4.8 | 8.0 | 0.00 | 0.00 | 0.00 | 73 | 1011.5 |
| 20260509061029 | 5 | 175 | 4.8 | 8.0 | 0.00 | 0.00 | 0.00 | 72 | 1011.5 |
| 20260509060028 | 5 | 166 | 3.2 | 4.8 | 0.00 | 0.00 | 0.00 | 71 | 1011.5 |
| 20260509055030 | 5 | 163 | 1.6 | 3.2 | 0.00 | 0.00 | 0.00 | 70 | 1011.9 |
| 20260509054029 | 6 | 157 | 4.8 | 6.4 | 0.00 | 0.00 | 0.00 | 71 | 1011.9 |
| 20260509053030 | 5 | 148 | 3.2 | 4.8 | 0.00 | 0.00 | 0.00 | 70 | 1011.9 |
| 20260509051030 | 5 | 187 | 3.2 | 4.8 | 0.00 | 0.00 | 0.00 | 69 | 1011.9 |
| 20260509050029 | 6 | 155 | 6.4 | 9.7 | 0.00 | 0.00 | 0.00 | 69 | 1012.2 |
| 20260509045028 | 6 | 157 | 8.0 | 11.3 | 0.00 | 0.00 | 0.00 | 69 | 1012.2 |
| 20260509043130 | 6 | 157 | 3.2 | 9.7 | 0.00 | 0.03 | 0.00 | 68 | 1012.2 |
| 20260509041129 | 6 | 137 | 4.8 | 6.4 | 0.00 | 0.03 | 0.00 | 67 | 1012.2 |
| 20260509040129 | 5 | 144 | 4.8 | 6.4 | 0.00 | 0.03 | 0.00 | 68 | 1012.2 |
| 20260509035113 | 5 | 157 | 3.2 | 6.4 | 0.00 | 0.03 | 0.03 | 67 | 1012.6 |
| 20260509033114 | 5 | 157 | 1.6 | 3.2 | 0.00 | 0.03 | 0.03 | 70 | 1012.6 |
| 20260509032114 | 5 | 157 | 3.2 | 4.8 | 0.00 | 0.03 | 0.03 | 70 | 1012.2 |
| 20260509031113 | 6 | 157 | 1.6 | 4.8 | 0.00 | 0.03 | 0.03 | 71 | 1012.6 |
| 20260509030211 | 6 | 157 | 3.2 | 4.8 | 0.00 | 0.03 | 0.03 | 70 | 1012.6 |
| 20260509024212 | 6 | 157 | 1.6 | 4.8 | 0.00 | 0.03 | 0.03 | 67 | 1012.6 |
| 20260509023213 | 7 | 157 | 0.0 | 1.6 | 0.00 | 0.03 | 0.03 | 64 | 1012.6 |
| 20260509022214 | 7 | 157 | 1.6 | 3.2 | 0.00 | 0.03 | 0.03 | 63 | 1012.9 |
| 20260509021214 | 7 | 157 | 0.0 | 3.2 | 0.00 | 0.03 | 0.03 | 62 | 1012.9 |
| 20260509020212 | 7 | 157 | 3.2 | 4.8 | 0.00 | 0.03 | 0.03 | 60 | 1012.9 |
| 20260509015213 | 7 | 157 | 1.6 | 3.2 | 0.00 | 0.03 | 0.03 | 57 | 1012.6 |
| 20260509014215 | 7 | 130 | 1.6 | 3.2 | 0.00 | 0.03 | 0.03 | 55 | 1012.6 |
| 20260509013213 | 8 | 157 | 1.6 | 3.2 | 0.00 | 0.03 | 0.03 | 53 | 1012.6 |
| 20260509012311 | 8 | 135 | 0.0 | 0.0 | 0.00 | 0.03 | 0.03 | 52 | 1012.6 |
| 20260509011315 | 8 | 135 | 0.0 | 0.0 | 0.00 | 0.03 | 0.03 | 51 | 1012.6 |
| 20260509010313 | 8 | 157 | 1.6 | 3.2 | 0.00 | 0.03 | 0.03 | 50 | 1012.2 |
| 20260509005315 | 8 | 157 | 0.0 | 0.0 | 0.00 | 0.03 | 0.03 | 48 | 1012.2 |
| 20260509004312 | 8 | 247 | 0.0 | 0.0 | 0.00 | 0.03 | 0.03 | 46 | 1012.2 |
| 20260509003316 | 9 | 247 | 0.0 | 0.0 | 0.00 | 0.03 | 0.03 | 44 | 1012.2 |
| 20260509001312 | 10 | 247 | 0.0 | 0.0 | 0.00 | 0.03 | 0.03 | 41 | 1012.2 |
| 20260509000314 | 11 | 292 | 1.6 | 4.8 | 0.00 | 0.03 | 0.03 | 40 | 1012.2 |
| 20260508235413 | 10 | 202 | 0.0 | 0.0 | 0.00 | 0.03 | 0.03 | 38 | 1012.2 |
| 20260508234415 | 11 | 331 | 3.2 | 4.8 | 0.00 | 0.03 | 0.03 | 36 | 1012.2 |
| 20260508233411 | 11 | 225 | 0.0 | 0.0 | 0.00 | 0.03 | 0.03 | 34 | 1012.2 |
| 20260508232413 | 11 | 247 | 0.0 | 0.0 | 0.00 | 0.03 | 0.03 | 34 | 1012.2 |
| 20260508231412 | 12 | 280 | 3.2 | 6.4 | 0.00 | 0.03 | 0.03 | 33 | 1012.2 |
| 20260508230511 | 13 | 267 | 1.6 | 4.8 | 0.00 | 0.03 | 0.03 | 34 | 1012.2 |
| 20260508225514 | 13 | 237 | 1.6 | 6.4 | 0.00 | 0.03 | 0.03 | 34 | 1012.5 |
| 20260508224515 | 13 | 194 | 1.6 | 6.4 | 0.00 | 0.03 | 0.03 | 34 | 1012.5 |
| 20260508223611 | 13 | 295 | 1.6 | 4.8 | 0.00 | 0.03 | 0.03 | 34 | 1012.2 |
| 20260508222612 | 12 | 245 | 6.4 | 9.7 | 0.00 | 0.03 | 0.03 | 34 | 1012.6 |
| 20260508221612 | 12 | 312 | 4.8 | 9.7 | 0.00 | 0.03 | 0.03 | 35 | 1012.5 |
| 20260508220711 | 13 | 254 | 3.2 | 6.4 | 0.00 | 0.03 | 0.03 | 37 | 1012.5 |
| 20260508215712 | 13 | 204 | 3.2 | 8.0 | 0.00 | 0.03 | 0.03 | 39 | 1012.6 |
| 20260508214712 | 13 | 228 | 4.8 | 6.4 | 0.00 | 0.03 | 0.03 | 40 | 1012.6 |
| 20260508213711 | 12 | 205 | 1.6 | 4.8 | 0.00 | 0.03 | 0.03 | 40 | 1012.6 |
| 20260508211716 | 12 | 260 | 3.2 | 9.7 | 0.00 | 0.03 | 0.03 | 45 | 1012.9 |
| 20260508210713 | 13 | 197 | 3.2 | 6.4 | 0.00 | 0.03 | 0.03 | 47 | 1012.6 |
| 20260508205713 | 13 | 326 | 0.0 | 3.2 | 0.00 | 0.03 | 0.03 | 49 | 1012.7 |
| 20260508204811 | 13 | 232 | 1.6 | 8.0 | 0.00 | 0.03 | 0.03 | 50 | 1013.1 |
| 20260508203812 | 13 | 310 | 3.2 | 6.4 | 0.00 | 0.03 | 0.03 | 52 | 1012.9 |
| 20260508202814 | 12 | 345 | 4.8 | 12.9 | 0.00 | 0.03 | 0.03 | 52 | 1013.0 |
| 20260508201813 | 12 | 356 | 4.8 | 8.0 | 0.00 | 0.03 | 0.03 | 54 | 1013.2 |
| 20260508200813 | 11 | 288 | 1.6 | 6.4 | 0.00 | 0.03 | 0.03 | 54 | 1013.2 |
| 20260508195813 | 11 | 314 | 3.2 | 6.4 | 0.00 | 0.03 | 0.03 | 55 | 1013.3 |
| 20260508194814 | 11 | 299 | 0.0 | 3.2 | 0.00 | 0.03 | 0.03 | 58 | 1013.6 |
| 20260508193912 | 10 | 302 | 4.8 | 8.0 | 0.00 | 0.03 | 0.03 | 56 | 1014.0 |
| 20260508192912 | 11 | 312 | 6.4 | 12.9 | 0.00 | 0.03 | 0.03 | 58 | 1013.6 |
| 20260508191914 | 11 | 285 | 3.2 | 6.4 | 0.00 | 0.03 | 0.03 | 58 | 1013.6 |
| 20260508190914 | 10 | 300 | 4.8 | 11.3 | 0.00 | 0.03 | 0.03 | 57 | 1013.6 |
| 20260508185913 | 11 | 311 | 1.6 | 9.7 | 0.00 | 0.03 | 0.03 | 60 | 1013.6 |
| 20260508184912 | 9 | 315 | 6.4 | 11.3 | 0.00 | 0.03 | 0.03 | 59 | 1014.0 |
| 20260508183914 | 10 | 308 | 4.8 | 9.7 | 0.00 | 0.03 | 0.03 | 61 | 1013.6 |
| 20260508182913 | 10 | 275 | 3.2 | 8.0 | 0.00 | 0.03 | 0.03 | 63 | 1014.0 |
| 20260508181013 | 9 | 297 | 8.0 | 14.5 | 0.00 | 0.03 | 0.03 | 62 | 1014.0 |
| 20260508180013 | 9 | 314 | 1.6 | 6.4 | 0.00 | 0.03 | 0.03 | 63 | 1014.0 |
| 20260508175012 | 9 | 302 | 6.4 | 14.5 | 0.00 | 0.03 | 0.03 | 62 | 1014.0 |